Погода в Ице

Погода в Ице : погода сейчас, прогноз погоды и архив. Всё, что Вы хотите узнать о погоде в Ице!

Хотите узнать прогноз погоды в Ице? Тогда Вам сюда: Погода в Ице

Поиск расширенной информации на нашем сайте:

Другие новости

Новости СМИ2

Главная страница сайта

Новости сайта

03.07.2017

Напоминаем, что на нашем специализированном сайте Метеоцентр.Азия вы можете получить высокодетализированные автоматические прогнозы погоды по пунктам России, СНГ и мира в авиационном формате (включающие направление и скорость ветра, видимость, явления погоды, количество и форму облачности, нижнюю и верхнюю границу облачности).


Погода в Ице - сегодня

Время (UTC), дата Ветер
(°,м/с) 
Видим.   Явления Облачность Т
(°С)
Тd
(°С)
f(%) Тe
(°С)
Pmin
(гПа)
dP
(гПа)
Po
(мм)
O2
(г/м3)
Тmin Tmax R s Состояние
почвы
21 24.07.17 130 (ЮВ) 10 км  слаб. ливневой дождь  10/10 300 м кучево-дожд. 
[Cb cap]
+16.9 +16.9 100 +29  1007.8  -0.4  755  283  +12.6    10     
00 25.07.17 170 (Ю) 9-12{14}  10 км  слаб. ливневой дождь  10/10 300 м кучево-дожд. 
[Cb cap]
+18.5 +18.5 100 +33  1005.9  -1.9  754  280           
03 25.07.17 150 (ЮВ) 8-13{15}  20000 м  в посл. час ливневой дождь  10/10 300 м 
[St]
+18.6 +18.6 100 +33  1003.4  -2.5  752  279           
06 25.07.17 200 (Ю) 9-19{19}  20000 м  в посл. час ливневой дождь  10/10 300 м 
[St]
+13.4 +13.4 100 +18  1005.2  1.8  753  287           
09 25.07.17 190 (Ю) 8-15{20}  10 км  слаб. морось{ливн. осадки}  10/10 300 м 
[St]
+13.8 +13.8 100 +20  1005.8  0.6  754  286    +19.3  24     
12 25.07.17 190 (Ю) 8-15{17}  10 км  ливневой дождь{морось}  10/10 300 м кучево-дожд. 
[Cb cap]
+13.6 +13.6 100 +18  1007.1  1.3  755  287           
15 25.07.17 190 (Ю) 6-11{17}  10 км  слаб. ливневой дождь  10/10 300 м кучево-дожд. 
[Cb cap]
+13.6 +13.6 100 +19  1007.4  0.3  755  287           
18 25.07.17 220 (ЮЗ) 3{13}  10 км  слаб. морось{ливн. осадки}  10/10 300 м 
[St]
+14.3 +14.3 100 +21  1006.7  -0.7  755  286           
21 25.07.17 190 (Ю) 6-12{14}  10 км  слаб. морось{ливн. осадки}  10/10 300 м 
[St]
+13 +13 100 +17  1008  1.3  755  288  +12.6       
00 26.07.17 200 (Ю) 6-10{14}  10 км  слаб. морось  10/10 300 м 
[St]
+14.8 +14.8 100 +22  1008  755  286           
03 26.07.17 200 (Ю) 5{12}  10 км  слаб. морось  10/10 300 м 
[St]
+13.8 +13.8 100 +19  1008  755  287           
06 26.07.17 200 (Ю) 10 км  слаб. морось  10/10 300 м 
[St]
+14.6 +14.6 100 +22  1007.2  -0.8  755  286           
09 26.07.17 190 (Ю) 4{12}  10 км  слаб. морось  10/10 300 м 
[St]
+13.5 +13.5 100 +19  1006.8  -0.4  755  287    +15.6  0.4     
12 26.07.17 190 (Ю) 5{11}  10 км  слаб. ливневой дождь  10/10 300 м кучево-дожд. 
[Cb cap]
+12.6 +12.6 100 +17  1006.5  -0.3  754  288           
15 26.07.17 190 (Ю) 5{12}  10 км  слаб. ливневой дождь  10/10 300 м кучево-дожд. 
[Cb cap]
+11.9 +11.9 100 +15  1006.6  0.1  754  289           
18 26.07.17 190 (Ю) 5-10{12}  10 км  слаб. ливневой дождь  10/10 300 м кучево-дожд. 
[Cb cap]
+11.4 +11.4 100 +13  1007.4  0.8  755  290           
21 26.07.17 190 (Ю) 6-12{12}  10 км  слаб. ливневой дождь  10/10 300 м кучево-дожд. 
[Cb cap]
+11.5 +11.5 100 +13  1008.9  1.5  756  290  +11.3       
00 27.07.17 190 (Ю) 6-12{14}  10 км  слаб. морось{ливн. осадки}  10/10 300 м 
[St]
+11.5 +11.5 100 +13  1010.8  1.9  758  291           
03 27.07.17 200 (Ю) 7-13{14}  10 км  слаб. морось{ливн. осадки}  10/10 300 м 
[St]
+11.7 +11.7 100 +13  1012.6  1.8  759  291           
06 27.07.17 200 (Ю) 7-13{15}  20000 м  {ливн. осадки, морось}  10/10 300 м 
[St]
+11.7 +11.7 100 +13  1014.2  1.6  760  291           
09 27.07.17 200 (Ю) 6-13{15}  10 км  слаб. морось{ливн. осадки}  10/10 300 м 
[St]
+11.4 +11.4 100 +13  1015.8  1.6  761  292    +12     
12 27.07.17 190 (Ю) 6-13{13}  10 км  слаб. морось  10/10 300 м 
[St]
+11.3 +11.3 100 +13  1016.6  0.8  762  293           
15 27.07.17 190 (Ю) 7-15{18}  20000 м  {морось}  10/10 300 м 
[St]
+10.6 +10.6 100 +11  1017.2  0.6  762  294           
18 27.07.17 190 (Ю) 7-13{18}  20000 м  {морось}  10/10 300 м 
[St]
+11.4 +11.4 100 +13  1017.8  0.6  763  293           
21 27.07.17 200 (Ю) 7-12{15}  20000 м    9/9 300 м 
[St]
+12.6 +12.6 100 +15  1018.7  0.9  764  292  +10.4    0.0     
Время (UTC), дата Ветер
(°,м/с) 
Видим.   Явления Облачность Т
(°С)
Тd
(°С)
f(%) Тe
(°С)
Pmin
(гПа)
dP
(гПа)
Po
(мм)
O2
(г/м3)
Тmin Tmax R s Состояние
почвы

Для получения пояснительной информации подведите курсор к названию столбца.

ПОГОДА в Ице - архив

Всё, что Вы хотите узнать о погоде в Ице - удобно и подробно!

Выберите нужную дату (начиная с 1 января 2015* года) и нажмите кнопку "Найти".
Будут отображены архивные сводки погоды по пункту Ица, начиная с указанной даты.


Отображать данные в формате CSV (для использования в таблицах Excel)


Внимание! Наш архив погоды предназначен исключительно для личного некоммерческого использования в познавательных целях. Если Вам необходимы официальные справки о состоянии погоды (для производственных, юридических, коммерческих и т.п. целей), обращайтесь в органы Росгидромета.

*Примечание: данная дата относится к архиву по метеостанциям СССР (Россия, СНГ, Балтия).
Архив по метеостанциям Зарубежной Европы и Азии (кроме Китая) хранится 10 дней, по другим регионам земного шара (Китай, Африка, Америка, Австралия, Океания) - 1 день.

Ица - район местоположения метеостанции


Название, широта, долгота, высота метеостанции:
Ица 55.6°ш. 155.6°д. 6 м над ур. моря [Российская Федерация]

Дополнительная информация

В oтличие oт бoльшинства пoгoдных сайтoв мы публикуем пoдрoбную метеoинфoрмацию в детальнoм прoфессиoнальнoм фoрмате.

Характеристики температуры и влажнoсти вoздуха измеряются на высoте 2 м в тени вдали oт зданий и деревьев.
Скoрoсть ветра измеряется на высoте 10 м (на урoвне рoста челoвека скoрoсть ветра ниже в 1.5-2 раза). Если метеoстанция нахoдится в гoрoде или в лесу, тo скoрoсть ветра занижена на 2-4 м/с пo сравнению с oткрытым местoм. Скoрoсть ветра над акватoриями крупных рек и oзёр, а также на вершинах хoлмoв на 2-5 м/с выше, чем в oбычных услoвиях.
Атмoсфернoе давление в разных тoчках местнoсти мoжет значительнo oтличаться oт давления на метеoстанции, в зависимoсти oт услoвий рельефа (при пoдъёме на 10 м давление пoнижается примернo на 1 мм рт.ст.).